Location: Newark
(52.3735°N, 16.9806°E)
Time: 02:23:11
(UTC+00:00)

Nauka - Pass Details

Date: 28 September 2021
Orbit: 417 x 423 km, 51.6° (Epoch: 16 October)

Event Time Altitude Azimuth Distance (km) Brightness Sun altitude
Rises 18:59:54 0° 282° (WNW) 2,367 ? -22.1°
Reaches altitude 10° 19:02:05 10° 274° (W) 1,502 ? -22.4°
Enters shadow 19:04:26 32° 238° (WSW) 742 ? -22.7°
